Location: Newark
(46.7000°N, 66.1167°W)
Time: 01:36:46
(UTC+00:00)

Envisat - Visible Passes

Search period start: 19 March 2019 00:00
Search period end: 29 March 2019 00:00
Orbit: 764 x 766 km, 98.2° (Epoch: 18 March)

Date Brightness Start Highest point End Pass type
(mag) Time Alt. Az. Time Alt. Az. Time Alt. Az.
19 Mar 6.0 00:31:15 10° WSW 00:33:49 14° W 00:36:24 10° WNW visible
19 Mar 5.1 23:52:17 10° SSW 23:56:39 29° W 00:01:04 10° NW visible
20 Mar 3.7 23:14:42 10° S 23:19:42 60° W 23:24:45 10° NNW visible
22 Mar 5.8 00:19:08 10° SW 00:22:28 17° W 00:25:48 10° NW visible
22 Mar 4.7 23:40:43 10° SSW 23:45:21 35° W 23:50:02 10° NNW visible
23 Mar 3.3 23:03:24 10° S 23:08:28 75° WSW 23:13:35 10° NNW visible
25 Mar 5.6 00:07:16 10° SW 00:11:07 21° W 00:14:59 10° NW visible
25 Mar 4.3 23:29:15 10° S 23:34:05 44° W 23:38:57 10° NNW visible
27 Mar 6.0 00:34:49 10° WSW 00:36:59 13° W 00:39:09 10° WNW visible
27 Mar 5.3 23:55:33 10° SSW 23:59:47 26° W 00:04:04 10° NW visible
28 Mar 3.9 23:17:51 10° S 23:22:49 55° W 23:27:49 10° NNW visible
